| time (UTC) | temp F | wind direction | speed MPH | gust MPH | rain 1hr in | rain 24hr in | rain mn in | humidity % | barometer mb |
| 20260902094558 | 60 | 75 | 0.0 | 1.0 | 0.00 | 0.00 | 0.00 | 92 | 1023.5 |
| 20260902093055 | 60 | 0 | 0.0 | 1.0 | 0.00 | 0.00 | 0.00 | 92 | 1023.5 |
| 20260902091552 | 60 | 0 | 0.0 | 2.0 | 0.00 | 0.00 | 0.00 | 92 | 1023.4 |
| 20260902090057 | 60 | 0 | 0.0 | 3.0 | 0.00 | 0.00 | 0.00 | 92 | 1023.4 |
| 20260902084602 | 60 | 0 | 0.0 | 1.0 | 0.00 | 0.00 | 0.00 | 92 | 1023.4 |
| 20260902083058 | 60 | 0 | 0.0 | 1.0 | 0.00 | 0.00 | 0.00 | 92 | 1023.4 |
| 20260902081606 | 60 | 0 | 0.0 | 1.0 | 0.00 | 0.00 | 0.00 | 92 | 1023.4 |
| 20260902080058 | 60 | 0 | 0.0 | 2.0 | 0.00 | 0.00 | 0.00 | 92 | 1023.2 |
| 20260902074556 | 60 | 27 | 1.0 | 3.0 | 0.00 | 0.00 | 0.00 | 91 | 1023.0 |
| 20260902073057 | 60 | 0 | 0.0 | 2.0 | 0.00 | 0.00 | 0.00 | 91 | 1023.0 |
| 20260902071554 | 60 | 0 | 0.0 | 2.0 | 0.00 | 0.00 | 0.00 | 91 | 1022.9 |
| 20260902070109 | 60 | 0 | 0.0 | 2.0 | 0.00 | 0.00 | 0.00 | 91 | 1022.8 |
| 20260902064609 | 60 | 0 | 0.0 | 3.0 | 0.00 | 0.00 | 0.00 | 91 | 1022.7 |
| 20260902063057 | 60 | 0 | 0.0 | 2.0 | 0.00 | 0.00 | 0.00 | 91 | 1022.6 |
| 20260902061606 | 60 | 0 | 0.0 | 2.0 | 0.00 | 0.00 | 0.00 | 91 | 1022.7 |
| 20260902060108 | 61 | 0 | 0.0 | 2.0 | 0.00 | 0.00 | 0.00 | 90 | 1022.6 |
| 20260902054556 | 61 | 0 | 1.0 | 3.0 | 0.00 | 0.00 | 0.00 | 90 | 1022.6 |
| 20260902053104 | 61 | 0 | 0.0 | 1.0 | 0.00 | 0.00 | 0.00 | 91 | 1022.6 |
| 20260902051553 | 61 | 0 | 0.0 | 3.0 | 0.00 | 0.00 | 0.00 | 90 | 1022.1 |
| 20260902050121 | 62 | 0 | 0.0 | 0.0 | 0.00 | 0.00 | 0.00 | 90 | 1021.9 |
| 20260902044558 | 62 | 0 | 0.0 | 6.0 | 0.00 | 0.00 | 0.00 | 90 | 1021.8 |
| 20260902043100 | 62 | 77 | 0.0 | 4.0 | 0.00 | 0.00 | 0.00 | 91 | 1021.6 |
| 20260902041555 | 63 | 21 | 0.0 | 2.0 | 0.00 | 0.00 | 0.00 | 91 | 1021.8 |
| 20260902034559 | 63 | 0 | 0.0 | 1.0 | 0.00 | 0.00 | 0.00 | 90 | 1021.6 |
| 20260902033056 | 63 | 0 | 0.0 | 1.0 | 0.00 | 0.00 | 0.00 | 90 | 1021.6 |
| 20260902031558 | 63 | 21 | 0.0 | 3.0 | 0.00 | 0.00 | 0.00 | 89 | 1021.4 |
| 20260902030057 | 63 | 0 | 0.0 | 4.0 | 0.00 | 0.00 | 0.00 | 89 | 1021.1 |
| 20260902024556 | 63 | 0 | 0.0 | 2.0 | 0.00 | 0.00 | 0.00 | 89 | 1021.1 |
| 20260902023056 | 63 | 0 | 0.0 | 3.0 | 0.00 | 0.00 | 0.00 | 88 | 1021.1 |
| 20260902021549 | 63 | 0 | 0.0 | 3.0 | 0.00 | 0.00 | 0.00 | 88 | 1021.1 |
| 20260902020047 | 63 | 0 | 0.0 | 1.0 | 0.00 | 0.00 | 0.00 | 88 | 1021.0 |
| 20260902014554 | 64 | 0 | 0.0 | 0.0 | 0.00 | 0.00 | 0.00 | 87 | 1021.1 |
| 20260902013049 | 64 | 0 | 0.0 | 0.0 | 0.00 | 0.00 | 0.00 | 87 | 1021.2 |
| 20260902011557 | 64 | 0 | 0.0 | 2.0 | 0.00 | 0.00 | 0.00 | 87 | 1021.2 |
| 20260902010105 | 64 | 0 | 0.0 | 2.0 | 0.00 | 0.00 | 0.00 | 87 | 1021.1 |
| 20260902004557 | 64 | 66 | 0.0 | 4.0 | 0.00 | 0.00 | 0.00 | 87 | 1020.9 |
| 20260902003059 | 64 | 185 | 0.0 | 4.0 | 0.00 | 0.00 | 0.00 | 87 | 1020.7 |
| 20260902001617 | 64 | 140 | 1.0 | 4.0 | 0.00 | 0.00 | 0.00 | 86 | 1020.5 |
| 20260902000057 | 64 | 0 | 2.0 | 8.0 | 0.00 | 0.00 | 0.00 | 86 | 1020.4 |
| 20260901234600 | 64 | 169 | 1.0 | 8.0 | 0.00 | 0.00 | 0.00 | 86 | 1020.4 |
| 20260901233057 | 65 | 57 | 1.0 | 5.0 | 0.00 | 0.00 | 0.00 | 85 | 1020.5 |
| 20260901231557 | 65 | 187 | 1.0 | 5.0 | 0.00 | 0.00 | 0.00 | 85 | 1020.4 |
| 20260901230057 | 65 | 105 | 1.0 | 6.0 | 0.00 | 0.00 | 0.00 | 85 | 1020.4 |
| 20260901224603 | 66 | 123 | 0.0 | 7.0 | 0.00 | 0.00 | 0.00 | 84 | 1020.2 |
| 20260901223059 | 66 | 154 | 1.0 | 8.0 | 0.00 | 0.00 | 0.00 | 83 | 1020.1 |
| 20260901221603 | 66 | 193 | 2.0 | 10.0 | 0.00 | 0.00 | 0.00 | 82 | 1020.2 |
| 20260901220100 | 68 | 190 | 3.0 | 8.0 | 0.00 | 0.00 | 0.00 | 79 | 1020.1 |
| 20260901214601 | 69 | 194 | 1.0 | 9.0 | 0.00 | 0.00 | 0.00 | 77 | 1020.0 |
| 20260901213102 | 71 | 240 | 2.0 | 10.0 | 0.00 | 0.00 | 0.00 | 74 | 1019.8 |
| 20260901211550 | 70 | 182 | 3.0 | 10.0 | 0.00 | 0.00 | 0.00 | 75 | 1019.6 |
| 20260901210113 | 69 | 112 | 2.0 | 6.0 | 0.00 | 0.00 | 0.00 | 76 | 1019.6 |
| 20260901204555 | 71 | 141 | 3.0 | 11.0 | 0.00 | 0.00 | 0.00 | 74 | 1019.6 |
| 20260901203103 | 71 | 73 | 3.0 | 11.0 | 0.00 | 0.00 | 0.00 | 73 | 1019.3 |
| 20260901201559 | 70 | 136 | 3.0 | 9.0 | 0.00 | 0.00 | 0.00 | 75 | 1019.4 |
| 20260901200108 | 70 | 134 | 3.0 | 9.0 | 0.00 | 0.00 | 0.00 | 74 | 1019.3 |
| 20260901194557 | 70 | 60 | 2.0 | 11.0 | 0.00 | 0.00 | 0.00 | 74 | 1019.4 |
| 20260901193053 | 71 | 195 | 2.0 | 8.0 | 0.00 | 0.00 | 0.00 | 71 | 1019.4 |
| 20260901191600 | 72 | 130 | 2.0 | 10.0 | 0.00 | 0.00 | 0.00 | 67 | 1019.5 |
| 20260901190056 | 74 | 176 | 1.0 | 8.0 | 0.00 | 0.00 | 0.00 | 64 | 1019.4 |
| 20260901184604 | 77 | 0 | 3.0 | 9.0 | 0.00 | 0.00 | 0.00 | 59 | 1019.4 |
| 20260901183108 | 76 | 355 | 1.0 | 3.0 | 0.00 | 0.00 | 0.00 | 56 | 1019.2 |
| 20260901181559 | 75 | 279 | 3.0 | 7.0 | 0.00 | 0.00 | 0.00 | 55 | 1019.0 |
| 20260901180054 | 75 | 242 | 2.0 | 7.0 | 0.00 | 0.00 | 0.00 | 54 | 1018.9 |
| 20260901174603 | 77 | 119 | 1.0 | 6.0 | 0.00 | 0.00 | 0.00 | 52 | 1019.0 |
| 20260901173059 | 74 | 149 | 1.0 | 5.0 | 0.00 | 0.00 | 0.00 | 59 | 1019.2 |
| 20260901171600 | 73 | 28 | 2.0 | 5.0 | 0.00 | 0.00 | 0.00 | 61 | 1019.2 |
| 20260901164557 | 74 | 187 | 1.0 | 5.0 | 0.00 | 0.00 | 0.00 | 59 | 1019.3 |
| 20260901163101 | 73 | 0 | 1.0 | 3.0 | 0.00 | 0.00 | 0.00 | 60 | 1019.4 |
| 20260901161626 | 72 | 0 | 0.0 | 4.0 | 0.00 | 0.00 | 0.00 | 62 | 1019.5 |
| 20260901160051 | 71 | 0 | 1.0 | 3.0 | 0.00 | 0.00 | 0.00 | 63 | 1019.6 |
| 20260901154617 | 70 | 132 | 1.0 | 3.0 | 0.00 | 0.00 | 0.00 | 63 | 1019.6 |
| 20260901153105 | 69 | 28 | 1.0 | 8.0 | 0.00 | 0.00 | 0.00 | 65 | 1019.6 |
| 20260901151556 | 68 | 321 | 1.0 | 6.0 | 0.00 | 0.00 | 0.00 | 68 | 1019.5 |
| 20260901150107 | 68 | 48 | 2.0 | 6.0 | 0.00 | 0.00 | 0.00 | 67 | 1019.2 |
| 20260901144559 | 67 | 133 | 1.0 | 7.0 | 0.00 | 0.00 | 0.00 | 68 | 1019.3 |
| 20260901143058 | 65 | 36 | 2.0 | 8.0 | 0.00 | 0.00 | 0.00 | 70 | 1019.5 |
| 20260901141603 | 64 | 119 | 2.0 | 8.0 | 0.00 | 0.00 | 0.00 | 70 | 1019.9 |
| 20260901140059 | 62 | 306 | 2.0 | 8.0 | 0.00 | 0.00 | 0.00 | 73 | 1019.9 |
| 20260901134557 | 60 | 41 | 4.0 | 11.0 | 0.00 | 0.00 | 0.00 | 74 | 1019.8 |
| 20260901133056 | 59 | 348 | 3.0 | 10.0 | 0.00 | 0.00 | 0.00 | 76 | 1020.0 |
| 20260901131602 | 59 | 42 | 4.0 | 12.0 | 0.00 | 0.00 | 0.00 | 76 | 1020.0 |
| 20260901124556 | 58 | 11 | 3.0 | 9.0 | 0.00 | 0.00 | 0.00 | 77 | 1020.2 |
| 20260901123056 | 58 | 44 | 4.0 | 11.0 | 0.00 | 0.00 | 0.00 | 77 | 1020.1 |
| 20260901121608 | 58 | 21 | 5.0 | 12.0 | 0.00 | 0.00 | 0.00 | 76 | 1020.0 |
| 20260901120110 | 57 | 355 | 5.0 | 12.0 | 0.00 | 0.00 | 0.00 | 76 | 1019.9 |
| 20260901114554 | 57 | 15 | 5.0 | 12.0 | 0.00 | 0.00 | 0.00 | 77 | 1019.8 |
| 20260901113102 | 57 | 50 | 7.0 | 11.0 | 0.00 | 0.00 | 0.00 | 77 | 1019.7 |
| 20260901111603 | 57 | 30 | 6.0 | 12.0 | 0.00 | 0.00 | 0.00 | 77 | 1019.7 |
| 20260901110058 | 57 | 360 | 6.0 | 12.0 | 0.00 | 0.00 | 0.00 | 78 | 1019.6 |
| 20260901104557 | 57 | 13 | 5.0 | 12.0 | 0.00 | 0.00 | 0.00 | 79 | 1019.5 |
| 20260901103100 | 57 | 15 | 7.0 | 12.0 | 0.00 | 0.00 | 0.00 | 79 | 1019.1 |
| 20260901101557 | 56 | 37 | 6.0 | 11.0 | 0.00 | 0.00 | 0.00 | 81 | 1019.1 |
| 20260901100058 | 56 | 41 | 6.0 | 11.0 | 0.00 | 0.00 | 0.00 | 82 | 1019.2 |